N172SB NZNE-NZKK

Flight info

Callsign N172SB
Flight time 1h 4m
Altitude 3000
Route DCT MHED1 DCT BHEAD DCT OPON1 DCT PQURY DCT
Aircraft C172/L-SFG/C

Departure

Time 2026-04-11 11:53
Airport North Shore Aerodrome (NZNE)

Arrival

Time 2026-04-11 12:58
Airport Kerikeri Airport (NZKK)
Time Latitude Longitude Altitude Speed Heading
2026-04-11 11:53 -36.65876 174.65327 195 ft 0 kts 140°
2026-04-11 11:53 -36.66069 174.65694 1664 ft 116 kts 80°
2026-04-11 11:53 -36.65807 174.65261 2194 ft 73 kts 114°
2026-04-11 11:54 -36.65525 174.65346 297 ft 41 kts 340°
2026-04-11 11:54 -36.64999 174.64939 803 ft 140 kts 316°
2026-04-11 11:54 -36.65522 174.65182 251 ft 155 kts 115°
2026-04-11 11:54 -36.65899 174.65950 625 ft 78 kts 234°
2026-04-11 11:55 -36.66203 174.65606 5180 ft 53 kts 225°
2026-04-11 11:55 -36.65676 174.65721 717 ft 217 kts 26°
2026-04-11 11:55 -36.66048 174.66633 678 ft 141 kts 204°
2026-04-11 11:55 -36.65799 174.66364 768 ft 122 kts 38°
2026-04-11 11:56 -36.65656 174.67310 669 ft 136 kts 153°
2026-04-11 11:56 -36.66064 174.67991 1123 ft 93 kts 11°
2026-04-11 11:56 -36.65781 174.67486 510 ft 121 kts 254°
2026-04-11 11:56 -36.65929 174.66883 845 ft 114 kts 115°
2026-04-11 11:57 -36.65639 174.67799 1127 ft 91 kts 78°
2026-04-11 11:57 -36.65795 174.67686 663 ft 125 kts 226°
2026-04-11 11:57 -36.65941 174.68174 691 ft 120 kts 56°
2026-04-11 11:57 -36.65407 174.68893 982 ft 109 kts 43°
2026-04-11 11:58 -36.64766 174.69440 1078 ft 118 kts 29°
2026-04-11 11:58 -36.64015 174.69895 1115 ft 123 kts
2026-04-11 11:58 -36.63134 174.69769 5210 ft 131 kts 343°
2026-04-11 11:58 -36.62193 174.69549 2782 ft 158 kts 357°
2026-04-11 11:59 -36.60869 174.69854 852 ft 186 kts
2026-04-11 11:59 -36.59889 174.69859 1041 ft 132 kts 359°
2026-04-11 11:59 -36.58945 174.69837 936 ft 130 kts 359°
2026-04-11 11:59 -36.58107 174.69825 1029 ft 116 kts 332°
2026-04-11 12:00 -36.57391 174.70296 1066 ft 128 kts 42°
2026-04-11 12:00 -36.56715 174.70703 1399 ft 101 kts 322°
2026-04-11 12:00 -36.56144 174.70195 1466 ft 109 kts 359°
2026-04-11 12:00 -36.55432 174.70434 1752 ft 93 kts 39°
2026-04-11 12:01 -36.54885 174.71077 1578 ft 114 kts 31°
2026-04-11 12:01 -36.54470 174.71345 1763 ft 103 kts 14°
2026-04-11 12:01 -36.53896 174.71079 1904 ft 96 kts 319°
2026-04-11 12:01 -36.53333 174.71295 1837 ft 121 kts 55°
2026-04-11 12:02 -36.52923 174.71104 5831 ft 115 kts 278°
2026-04-11 12:02 -36.52393 174.70298 4877 ft 163 kts 349°
2026-04-11 12:02 -36.51367 174.70797 3319 ft 175 kts 46°
2026-04-11 12:02 -36.50296 174.71599 2016 ft 161 kts 17°
2026-04-11 12:03 -36.49384 174.71884 2208 ft 134 kts 11°
2026-04-11 12:03 -36.48555 174.72326 2099 ft 138 kts 37°
2026-04-11 12:03 -36.47896 174.73066 2248 ft 122 kts 45°
2026-04-11 12:03 -36.47291 174.73874 2220 ft 126 kts 47°
2026-04-11 12:04 -36.46557 174.74416 2301 ft 123 kts 17°
2026-04-11 12:04 -36.45752 174.74775 2376 ft 123 kts 20°
2026-04-11 12:04 -36.44951 174.75135 2452 ft 122 kts 14°
2026-04-11 12:04 -36.44078 174.74949 2043 ft 146 kts 341°
2026-04-11 12:05 -36.43168 174.74522 2017 ft 133 kts 339°
2026-04-11 12:05 -36.42327 174.74082 1946 ft 133 kts 336°
2026-04-11 12:05 -36.41512 174.73605 1936 ft 127 kts 322°
2026-04-11 12:05 -36.40870 174.72791 1735 ft 133 kts 312°
2026-04-11 12:06 -36.40275 174.71984 1799 ft 125 kts 312°
2026-04-11 12:06 -36.39718 174.71225 2010 ft 114 kts 312°
2026-04-11 12:06 -36.39324 174.70763 1932 ft 127 kts 328°
2026-04-11 12:06 -36.38495 174.70330 1903 ft 126 kts 341°
2026-04-11 12:07 -36.37616 174.69963 3972 ft 172 kts 343°
2026-04-11 12:07 -36.35935 174.69808 2423 ft 157 kts 10°
2026-04-11 12:07 -36.34992 174.70200 2279 ft 128 kts 21°
2026-04-11 12:07 -36.34472 174.70454 2169 ft 113 kts 20°
2026-04-11 12:08 -36.33770 174.70783 2034 ft 106 kts 20°
2026-04-11 12:08 -36.33109 174.71093 1994 ft 98 kts 20°
2026-04-11 12:08 -36.32445 174.71405 2009 ft 107 kts 20°
2026-04-11 12:08 -36.31712 174.71774 1931 ft 119 kts 21°
2026-04-11 12:09 -36.30948 174.72175 1977 ft 115 kts 21°
2026-04-11 12:09 -36.30215 174.72520 1993 ft 118 kts 20°
2026-04-11 12:09 -36.29442 174.72878 1998 ft 119 kts 20°
2026-04-11 12:09 -36.28684 174.73230 2000 ft 122 kts 20°
2026-04-11 12:10 -36.27888 174.73597 1993 ft 121 kts 20°
2026-04-11 12:10 -36.27097 174.73957 1994 ft 121 kts 20°
2026-04-11 12:10 -36.26284 174.74269 1924 ft 128 kts 27°
2026-04-11 12:10 -36.25351 174.74239 1815 ft 137 kts 20°
2026-04-11 12:11 -36.24404 174.74198 7576 ft 142 kts 15°
2026-04-11 12:11 -36.23496 174.73202 6498 ft 207 kts 319°
2026-04-11 12:11 -36.22601 174.71940 9051 ft 190 kts 338°
2026-04-11 12:11 -36.21774 174.70807 5452 ft 167 kts 326°
2026-04-11 12:12 -36.20978 174.69297 1708 ft 254 kts 304°
2026-04-11 12:12 -36.20254 174.67602 1629 ft 180 kts 307°
2026-04-11 12:12 -36.19572 174.66780 2125 ft 121 kts
2026-04-11 12:12 -36.18685 174.66356 1952 ft 144 kts
2026-04-11 12:13 -36.17733 174.66158 1846 ft 139 kts 15°
2026-04-11 12:13 -36.16753 174.65951 1722 ft 145 kts
2026-04-11 12:13 -36.15758 174.65720 1597 ft 145 kts
2026-04-11 12:13 -36.14773 174.65497 1559 ft 143 kts 10°
2026-04-11 12:14 -36.13800 174.65282 1559 ft 141 kts 10°
2026-04-11 12:14 -36.12837 174.65053 1556 ft 142 kts 10°
2026-04-11 12:14 -36.11855 174.64806 1545 ft 144 kts 10°
2026-04-11 12:14 -36.10883 174.64538 1546 ft 146 kts 10°
2026-04-11 12:15 -36.09890 174.64265 1546 ft 146 kts
2026-04-11 12:15 -36.08900 174.63989 1547 ft 147 kts
2026-04-11 12:15 -36.07904 174.63593 1547 ft 152 kts 359°
2026-04-11 12:15 -36.06901 174.63170 1551 ft 153 kts
2026-04-11 12:16 -36.05894 174.62726 1538 ft 153 kts 359°
2026-04-11 12:16 -36.04884 174.62292 1537 ft 154 kts
2026-04-11 12:16 -36.03875 174.61854 1535 ft 152 kts
2026-04-11 12:16 -36.02877 174.61454 1548 ft 149 kts
2026-04-11 12:17 -36.01873 174.61061 1539 ft 153 kts
2026-04-11 12:17 -36.00869 174.60642 1570 ft 150 kts
2026-04-11 12:17 -36.00715 174.60582 1596 ft 148 kts
2026-04-11 12:17 -36.00219 174.60551 5591 ft 130 kts 23°
2026-04-11 12:18 -35.99410 174.60457 5512 ft 119 kts 15°
2026-04-11 12:18 -35.98525 174.59586 3723 ft 218 kts 323°
2026-04-11 12:18 -35.96442 174.57885 6008 ft 272 kts 301°
2026-04-11 12:19 -35.95774 174.55903 3404 ft 231 kts 293°
2026-04-11 12:19 -35.94870 174.54176 2003 ft 230 kts 320°
2026-04-11 12:19 -35.93765 174.53630 2099 ft 153 kts 354°
2026-04-11 12:19 -35.92921 174.53844 2351 ft 124 kts 49°
2026-04-11 12:20 -35.92406 174.54831 1157 ft 176 kts 54°
2026-04-11 12:20 -35.91492 174.55482 3190 ft 132 kts 12°
2026-04-11 12:20 -35.90572 174.55363 3953 ft 151 kts 339°
2026-04-11 12:20 -35.89606 174.54535 6613 ft 145 kts 322°
2026-04-11 12:21 -35.88601 174.53723 3944 ft 201 kts 328°
2026-04-11 12:21 -35.87427 174.52944 2449 ft 187 kts 336°
2026-04-11 12:21 -35.86427 174.52363 5322 ft 113 kts 328°
2026-04-11 12:21 -35.85358 174.51610 2534 ft 198 kts 329°
2026-04-11 12:22 -35.84274 174.50989 2306 ft 147 kts 351°
2026-04-11 12:22 -35.83293 174.50940 2174 ft 138 kts 360°
2026-04-11 12:22 -35.82344 174.50881 2044 ft 136 kts 351°
2026-04-11 12:22 -35.81453 174.50619 2005 ft 131 kts 343°
2026-04-11 12:23 -35.80577 174.50362 2003 ft 129 kts 347°
2026-04-11 12:23 -35.79704 174.50136 2002 ft 128 kts 347°
2026-04-11 12:23 -35.78833 174.49910 2000 ft 128 kts 347°
2026-04-11 12:23 -35.77966 174.49679 1994 ft 127 kts 340°
2026-04-11 12:24 -35.77386 174.48790 11197 ft 162 kts 287°
2026-04-11 12:24 -35.76973 174.47456 9715 ft 185 kts 292°
2026-04-11 12:24 -35.76501 174.46119 7700 ft 193 kts 293°
2026-04-11 12:24 -35.75974 174.44752 4291 ft 209 kts 306°
2026-04-11 12:25 -35.75014 174.43636 3649 ft 189 kts 338°
2026-04-11 12:25 -35.73777 174.42901 2537 ft 169 kts 326°
2026-04-11 12:25 -35.72806 174.42515 4355 ft 139 kts 354°
2026-04-11 12:25 -35.72158 174.42488 5951 ft 140 kts 354°
2026-04-11 12:26 -35.71571 174.41677 4019 ft 171 kts 311°
2026-04-11 12:26 -35.70732 174.40639 3359 ft 205 kts 323°
2026-04-11 12:26 -35.69629 174.39740 2853 ft 160 kts 326°
2026-04-11 12:26 -35.68862 174.39111 5106 ft 144 kts 327°
2026-04-11 12:27 -35.67740 174.38239 2871 ft 191 kts 326°
2026-04-11 12:27 -35.66820 174.37450 2878 ft 138 kts 325°
2026-04-11 12:27 -35.66114 174.36971 7423 ft 89 kts 328°
2026-04-11 12:27 -35.65167 174.36169 3358 ft 216 kts 321°
2026-04-11 12:28 -35.64162 174.35696 14001 ft 162 kts 29°
2026-04-11 12:28 -35.63138 174.35606 11160 ft 214 kts 332°
2026-04-11 12:28 -35.61939 174.34623 10288 ft 175 kts 322°
2026-04-11 12:28 -35.61056 174.33836 8700 ft 165 kts 324°
2026-04-11 12:29 -35.60380 174.33862 3796 ft 232 kts 358°
2026-04-11 12:29 -35.60216 174.33229 3455 ft 141 kts 262°
2026-04-11 12:29 -35.60387 174.33318 1628 ft 117 kts 354°
2026-04-11 12:29 -35.59243 174.33072 828 ft 157 kts 330°
2026-04-11 12:30 -35.58406 174.32663 1474 ft 138 kts 331°
2026-04-11 12:30 -35.57594 174.32184 1692 ft 110 kts 334°
2026-04-11 12:30 -35.56817 174.31675 1353 ft 129 kts 329°
2026-04-11 12:30 -35.56051 174.31286 1584 ft 119 kts 347°
2026-04-11 12:31 -35.55238 174.31049 14003 ft 123 kts 338°
2026-04-11 12:31 -35.55115 174.30604 11921 ft 147 kts 189°
2026-04-11 12:31 -35.55932 174.30406 6250 ft 89 kts 192°
2026-04-11 12:31 -35.56869 174.29762 2360 ft 199 kts 212°
2026-04-11 12:32 -35.57771 174.28785 5345 ft 177 kts 244°
2026-04-11 12:32 -35.58233 174.27469 9697 ft 161 kts 255°
2026-04-11 12:32 -35.58039 174.26577 4771 ft 187 kts 291°
2026-04-11 12:32 -35.57850 174.24889 4520 ft 187 kts 278°
2026-04-11 12:33 -35.57420 174.23658 7286 ft 122 kts 294°
2026-04-11 12:33 -35.56740 174.22355 4486 ft 212 kts 311°
2026-04-11 12:33 -35.56670 174.21131 3281 ft 182 kts 210°
2026-04-11 12:33 -35.57345 174.21173 3979 ft 57 kts
2026-04-11 12:34 -35.58064 174.20886 401 ft 0 kts 164°
2026-04-11 12:34 -35.58083 174.20893 8400 ft 73 kts 162°
2026-04-11 12:34 -35.58651 174.21282 7970 ft 186 kts 130°
2026-04-11 12:34 -35.58889 174.21622 5331 ft 62 kts 108°
2026-04-11 12:35 -35.58986 174.21623 3886 ft 98 kts 246°
2026-04-11 12:35 -35.58582 174.20764 3232 ft 146 kts 321°
2026-04-11 12:35 -35.57576 174.20344 2271 ft 162 kts 359°
2026-04-11 12:36 -35.56631 174.20679 2070 ft 124 kts 31°
2026-04-11 12:36 -35.55918 174.21264 2062 ft 125 kts 34°
2026-04-11 12:36 -35.55104 174.21663 2005 ft 127 kts 17°
2026-04-11 12:36 -35.54270 174.22028 1954 ft 128 kts 19°
2026-04-11 12:37 -35.53433 174.22401 1910 ft 128 kts 19°
2026-04-11 12:37 -35.52567 174.22519 1841 ft 128 kts 342°
2026-04-11 12:37 -35.51742 174.22131 1797 ft 127 kts 339°
2026-04-11 12:37 -35.50912 174.21762 1747 ft 127 kts 339°
2026-04-11 12:38 -35.50091 174.21394 1700 ft 128 kts 339°
2026-04-11 12:38 -35.49254 174.21022 1661 ft 128 kts 339°
2026-04-11 12:38 -35.48415 174.20667 1621 ft 128 kts 340°
2026-04-11 12:38 -35.47576 174.20291 1579 ft 128 kts 339°
2026-04-11 12:39 -35.46737 174.19913 1537 ft 129 kts 339°
2026-04-11 12:39 -35.45896 174.19536 1487 ft 129 kts 339°
2026-04-11 12:39 -35.45055 174.19158 1444 ft 129 kts 339°
2026-04-11 12:39 -35.44212 174.18777 1399 ft 129 kts 339°
2026-04-11 12:40 -35.43366 174.18393 1360 ft 130 kts 338°
2026-04-11 12:40 -35.42712 174.18799 1338 ft 121 kts 47°
2026-04-11 12:40 -35.41985 174.19157 1411 ft 117 kts 347°
2026-04-11 12:40 -35.41237 174.18819 1519 ft 114 kts 339°
2026-04-11 12:41 -35.40496 174.18485 1613 ft 113 kts 338°
2026-04-11 12:41 -35.39769 174.18124 1697 ft 112 kts 336°
2026-04-11 12:41 -35.39111 174.17612 1786 ft 112 kts 323°
2026-04-11 12:41 -35.38481 174.17049 1877 ft 112 kts 323°
2026-04-11 12:42 -35.37862 174.16493 1966 ft 112 kts 323°
2026-04-11 12:42 -35.37290 174.15987 1995 ft 116 kts 324°
2026-04-11 12:42 -35.36627 174.15400 1999 ft 119 kts 323°
2026-04-11 12:43 -35.35499 174.13979 1991 ft 121 kts 279°
2026-04-11 12:43 -35.35247 174.13006 2000 ft 120 kts 295°
2026-04-11 12:43 -35.34891 174.12077 2001 ft 121 kts 295°
2026-04-11 12:43 -35.34525 174.11148 2002 ft 121 kts 296°
2026-04-11 12:44 -35.34155 174.10240 2002 ft 121 kts 296°
2026-04-11 12:44 -35.33778 174.09321 2003 ft 121 kts 297°
2026-04-11 12:44 -35.33397 174.08399 2004 ft 121 kts 296°
2026-04-11 12:44 -35.33018 174.07477 2004 ft 121 kts 297°
2026-04-11 12:45 -35.32638 174.06558 2003 ft 121 kts 297°
2026-04-11 12:45 -35.32259 174.05641 2002 ft 121 kts 297°
2026-04-11 12:45 -35.31880 174.04725 2001 ft 120 kts 296°
2026-04-11 12:45 -35.31505 174.03815 2000 ft 120 kts 297°
2026-04-11 12:46 -35.31128 174.02903 2001 ft 120 kts 296°
2026-04-11 12:46 -35.30754 174.02001 2002 ft 120 kts 296°
2026-04-11 12:46 -35.30389 174.01116 2003 ft 120 kts 296°
2026-04-11 12:46 -35.29959 174.00079 1820 ft 154 kts 297°
2026-04-11 12:47 -35.29445 173.98850 1716 ft 167 kts 296°
2026-04-11 12:47 -35.28916 173.97561 1653 ft 170 kts 296°
2026-04-11 12:47 -35.28380 173.96263 1604 ft 171 kts 296°
2026-04-11 12:47 -35.27843 173.94963 1535 ft 171 kts 296°
2026-04-11 12:48 -35.27301 173.93672 1496 ft 170 kts 296°
2026-04-11 12:48 -35.26776 173.92403 1465 ft 166 kts 295°
2026-04-11 12:48 -35.26258 173.91151 1450 ft 165 kts 295°
2026-04-11 12:48 -35.26250 173.90060 1483 ft 120 kts 204°
2026-04-11 12:49 -35.26994 173.90197 1013 ft 119 kts 125°
2026-04-11 12:49 -35.27233 173.91096 849 ft 109 kts 137°
2026-04-11 12:49 -35.27581 173.91776 957 ft 107 kts 60°
2026-04-11 12:49 -35.26673 173.91762 780 ft 147 kts 347°
2026-04-11 12:50 -35.25726 173.91554 752 ft 136 kts 15°
2026-04-11 12:50 -35.24784 173.91500 877 ft 142 kts 339°
2026-04-11 12:50 -35.24229 173.90566 997 ft 136 kts 272°
2026-04-11 12:50 -35.24406 173.89524 1124 ft 118 kts 240°
2026-04-11 12:51 -35.24649 173.88622 1220 ft 108 kts 244°
2026-04-11 12:51 -35.24721 173.87730 1324 ft 110 kts 272°
2026-04-11 12:51 -35.24401 173.86869 1410 ft 115 kts 292°
2026-04-11 12:51 -35.23746 173.86211 1278 ft 131 kts 334°
2026-04-11 12:52 -35.22837 173.85909 1225 ft 135 kts 350°
2026-04-11 12:52 -35.21949 173.85634 1340 ft 130 kts 352°
2026-04-11 12:52 -35.21109 173.85314 1444 ft 122 kts 348°
2026-04-11 12:52 -35.20286 173.85012 1475 ft 127 kts 350°
2026-04-11 12:53 -35.19427 173.84695 1476 ft 131 kts 349°
2026-04-11 12:53 -35.18561 173.84409 1458 ft 124 kts 358°
2026-04-11 12:53 -35.17759 173.84047 1450 ft 121 kts 345°
2026-04-11 12:53 -35.16953 173.83736 1460 ft 123 kts 349°
2026-04-11 12:54 -35.16133 173.83445 1461 ft 123 kts 349°
2026-04-11 12:54 -35.15316 173.83226 1423 ft 111 kts 24°
2026-04-11 12:54 -35.14677 173.83740 1143 ft 123 kts 57°
2026-04-11 12:54 -35.14123 173.84542 999 ft 122 kts 63°
2026-04-11 12:55 -35.13773 173.85402 829 ft 105 kts 104°
2026-04-11 12:55 -35.14054 173.86073 800 ft 82 kts 135°
2026-04-11 12:55 -35.14413 173.86607 840 ft 80 kts 138°
2026-04-11 12:55 -35.14950 173.86454 736 ft 93 kts 206°
2026-04-11 12:56 -35.15552 173.86205 646 ft 89 kts 160°
2026-04-11 12:56 -35.16113 173.86492 790 ft 90 kts 156°
2026-04-11 12:56 -35.16712 173.86794 917 ft 95 kts 157°
2026-04-11 12:56 -35.17315 173.87090 1044 ft 93 kts 157°
2026-04-11 12:57 -35.17912 173.87369 1165 ft 90 kts 158°
2026-04-11 12:57 -35.18490 173.87638 1283 ft 91 kts 156°
2026-04-11 12:57 -35.19054 173.87894 1374 ft 77 kts 156°
2026-04-11 12:57 -35.19472 173.88085 1210 ft 64 kts 157°
2026-04-11 12:58 -35.19870 173.88269 1080 ft 69 kts 159°
2026-04-11 12:58 -35.20244 173.88437 1158 ft 49 kts 154°
2026-04-11 12:58 -35.20541 173.88574 1231 ft 45 kts 151°
2026-04-11 12:58 -35.20876 173.88718 1308 ft 56 kts 157°
2026-04-11 12:59 -35.21298 173.88945 1440 ft 77 kts 146°
2026-04-11 12:59 -35.21441 173.89739 1243 ft 120 kts 93°
2026-04-11 12:59 -35.20928 173.90651 1178 ft 139 kts 36°
2026-04-11 12:59 -35.20021 173.90841 1358 ft 139 kts 347°
2026-04-11 13:00 -35.19485 173.89869 1023 ft 151 kts 264°
2026-04-11 13:00 -35.19883 173.88834 961 ft 126 kts 211°
2026-04-11 13:00 -35.20667 173.88717 972 ft 116 kts 162°
2026-04-11 13:00 -35.21412 173.89052 978 ft 112 kts 155°
2026-04-11 13:01 -35.22029 173.89550 1045 ft 105 kts 128°
2026-04-11 13:01 -35.22949 173.90436 871 ft 73 kts 148°
2026-04-11 13:01 -35.22855 173.91172 601 ft 132 kts 40°
2026-04-11 13:02 -35.22095 173.90892 723 ft 130 kts 268°
2026-04-11 13:02 -35.22617 173.90341 809 ft 102 kts 182°
2026-04-11 13:02 -35.23318 173.90418 746 ft 99 kts 164°
2026-04-11 13:02 -35.23943 173.90663 676 ft 88 kts 168°
2026-04-11 13:03 -35.24513 173.90826 615 ft 82 kts 166°
2026-04-11 13:03 -35.25029 173.90986 534 ft 69 kts 164°
2026-04-11 13:03 -35.25477 173.91132 498 ft 61 kts 165°
2026-04-11 13:03 -35.25752 173.91223 493 ft 17 kts 166°
2026-04-11 13:04 -35.25853 173.91240 489 ft 13 kts 167°
2026-04-11 13:04 -35.25947 173.91267 486 ft 17 kts 167°
2026-04-11 13:04 -35.26094 173.91313 481 ft 25 kts 164°
2026-04-11 13:04 -35.26209 173.91318 479 ft 13 kts 228°
2026-04-11 13:05 -35.26249 173.91236 481 ft 9 kts 225°
2026-04-11 13:05 -35.26270 173.91223 479 ft 0 kts 196°
2026-04-11 13:06 -35.26273 173.91222 480 ft 0 kts 192°
2026-04-11 13:06 -35.26243 173.91195 483 ft 0 kts 188°
2026-04-11 13:08 -35.26244 173.91193 2470 ft 9 kts 183°
2026-04-11 13:08 -35.26257 173.91155 709 ft 85 kts 69°
2026-04-11 13:08 -35.26176 173.91388 1372 ft 29 kts 70°
2026-04-11 13:09 -35.25267 173.91057 500 ft 0 kts 166°
2026-04-11 13:09 -35.25266 173.91057 500 ft 1 kts 167°
2026-04-11 13:09 -35.25381 173.91086 543 ft 38 kts 168°
2026-04-11 13:09 -35.25727 173.91142 581 ft 57 kts 172°
2026-04-11 13:10 -35.26107 173.91211 650 ft 11 kts 172°
2026-04-11 13:10 -35.26244 173.91231 565 ft 0 kts 174°
2026-04-11 13:10 -35.26253 173.91231 481 ft 0 kts 175°
2026-04-11 13:11 -35.26254 173.91231 481 ft 0 kts 182°
2026-04-11 13:12 -35.26254 173.91230 481 ft 0 kts 188°
2026-04-11 13:14 -35.26255 173.91230 481 ft 0 kts 197°